Weather in Chuchkovo

Russia / Ryazan Oblast     54°16′07″N   41°26′46″E
temp.,
°C
wind,
m/s
gust,
m/s
humid.,
%
clouds,
%
prec.,
mm/h
press.,
hPa
HPBL,
m
28 november, sun
sun2800:00+1s81698100 1.3 1007620
03:00+1s71498100 1.4 1006478
06:00+1s612100100 0.0 1006362
09:00+1s512100100 0.0 1007318
12:00+2ssw410100100 0.1 1008291
15:00+2ssw49100100 0.2 1009214
18:00+2sw4899100 0.0 1011254
21:00+1ssw36100100 0.0 1012182
29 november, mon
mon2900:00+1sse25100100 0.0 1012128
03:00+2se3599100 0.0 101279
06:00+2se37100100 0.0 1010140
09:00+2se410100100 0.1 1009244
12:00+3ese510100100 1.8 1006218
15:00+3ese51199100 4.3 1003335
18:00+3se41199100 1.4 1000311
21:00+5sse61499100 1.6 997342
30 november, tue
tue3000:00+6ese71698100 0.9 991574
03:00+8sse92095100 5.4 9851054
06:00+10s122087100 2.7 9801171
09:00+10ssw122076100 3.1 9781200
12:00+4ssw132178100 0.1 9801410
15:00+1sw142395100 1.3 9781241
18:00+1sw132396100 4.0 9831182
21:00+1sw122076100 4.2 9871123
1 december, wed
wed100:00+1sw101567100 0.0 9881177
03:00−1sw91477100 0.1 9901092
06:00−1sw61179100 0.0 991735
09:00−1wsw61088100 0.1 991790
12:00−1wsw71077100 0.0 992943
15:00−2wsw6117869 0.1 992827
18:00−2wsw6118177 0.0 994718
21:00−3wsw61193100 0.1 994886
2 december, thu
thu200:00−3wsw61092100 0.7 996859
03:00−3w6987100 1.1 998862
06:00−5w5108577 0.1 1000607
09:00−5wsw498641 0.1 1002533
12:00−3ssw5972100 0.0 1002581
15:00−2s61386100 0.0 1001586
18:00−1ssw71597100 1.2 1000706
21:00+1sw71497100 1.6 1000636